Location: ??????
(56.0120°N, 39.1740°E)
Time: 20:35:53
(UTC+00:00)

Cosmos 1975 Rocket - Pass Details

Date: 14 April 2026
Orbit: 597 x 626 km, 82.5° (Epoch: 16 May)

Event Time Altitude Azimuth Distance (km) Brightness Sun altitude
Rises 18:27:29 0° 352° (N) 2,929 7.4 -14.9°
Reaches altitude 10° 18:30:01 10° 5° (N) 2,016 6.3 -15.2°
Maximum altitude 18:33:53 28° 64° (ENE) 1,189 4.3 -15.6°
Enters shadow 18:35:34 22° 101° (E) 1,383 4.4 -15.7°
